Change the Weather History Date:

Monday, October 24, 2011

  Actual Average Record
Temperature  
Mean Temperature 51 °F 48 °F  
Max Temperature 58 °F 57 °F 81 °F (1963)
Min Temperature 43 °F 39 °F 23 °F (1889)
Degree Days  
Heating Degree Days 14 17  
Month to date heating degree days 244 324  
Since 1 July heating degree days 339 505  
Cooling Degree Days 0 0  
Month to date cooling degree days 1 0  
Year to date cooling degree days 695 534  
Moisture  
Dew Point 42 °F    
Average Humidity 74    
Maximum Humidity 92    
Minimum Humidity 55    
Precipitation  
Precipitation 0.10 in 0.08 in 1.12 in (1923)
Month to date precipitation 4.18 2.11  
Year to date precipitation 34.49 28.09  
Snow  
Snow 0.00 in 0.00 in 1.40 in (1960)
Month to date snowfall 0.0 0.0  
Since 1 July snowfall 0.0 0.0  
Since 1 September snowfall 0.0 0.0  
Snow Depth 0.00 in    
Sea Level Pressure  
Sea Level Pressure 29.93 in    
Wind  
Wind Speed 9 mph (SW)    
Max Wind Speed 25 mph    
Max Gust Speed 32 mph    
Visibility 10 miles    
Events Rain , Thunderstorm    
T = Trace of Precipitation, MM = Missing Value Source: NWS Daily Summary

Daily Weather History Graph

Daily Weather History Graph

Search for Another Location

Airport or City:

Trip Planner

Search our weather history database for the weather conditions in past years. The results will help you decide how hot, cold, wet, or windy it might be!

Date:

Astronomy

Oct. 24, 2011 Rise Set
Actual Time 7:34 AM EDT 6:14 PM EDT
Civil Twilight 7:05 AM EDT 6:43 PM EDT
Nautical Twilight 6:32 AM EDT 7:16 PM EDT
Astronomical Twilight 5:59 AM EDT 7:49 PM EDT
Moon 4:47 AM EDT (10/24) 4:40 PM EDT (10/24)
Length of Visible Light 11h 37m
Length of Day
10h 39m
Waning Crescent, 7% of the Moon is Illuminated
Oct 24
Waning Crescent
Oct 26
New
Nov 2
First Quarter
Nov 10
Full
Nov 18
Last Quarter

Hourly Weather History & Observations

Time (EDT) Temp. Windchill Dew Point Humidity Pressure Visibility Wind Dir Wind Speed Gust Speed Precip Events Conditions
12:54 AM 44.1 °F - 39.0 °F 82% 30.03 in 10.0 mi Calm Calm - N/A   Overcast
1:54 AM 45.0 °F 42.6 °F 37.9 °F 76% 30.01 in 10.0 mi South 4.6 mph - N/A   Mostly Cloudy
2:54 AM 48.0 °F - 37.9 °F 68% 30.00 in 10.0 mi South 4.6 mph - N/A   Overcast
3:54 AM 51.1 °F - 37.9 °F 61% 29.98 in 10.0 mi SSW 10.4 mph - N/A   Overcast
4:54 AM 51.1 °F - 37.9 °F 61% 29.96 in 10.0 mi SSW 8.1 mph - N/A   Mostly Cloudy
5:54 AM 51.1 °F - 37.9 °F 61% 29.95 in 10.0 mi SSW 9.2 mph - N/A   Mostly Cloudy
6:54 AM 50.0 °F - 37.9 °F 63% 29.92 in 10.0 mi South 8.1 mph - N/A   Scattered Clouds
7:54 AM 50.0 °F - 37.9 °F 63% 29.91 in 10.0 mi SSW 8.1 mph - N/A   Mostly Cloudy
8:54 AM 53.1 °F - 39.0 °F 59% 29.90 in 10.0 mi South 9.2 mph - N/A   Mostly Cloudy
9:54 AM 57.0 °F - 41.0 °F 55% 29.88 in 10.0 mi SSW 10.4 mph 18.4 mph N/A   Mostly Cloudy
10:54 AM 57.9 °F - 41.0 °F 53% 29.89 in 10.0 mi SSW 15.0 mph 20.7 mph N/A   Overcast
11:45 AM 55.4 °F - 46.4 °F 72% 29.89 in 10.0 mi WSW 15.0 mph 24.2 mph 0.00 in   Overcast
11:54 AM 55.9 °F - 45.0 °F 67% 29.90 in 10.0 mi WSW 17.3 mph 28.8 mph 0.00 in   Overcast
12:10 PM 55.4 °F - 46.4 °F 72% 29.89 in 10.0 mi WSW 12.7 mph - N/A   Overcast
12:54 PM 55.0 °F - 45.0 °F 69% 29.90 in 10.0 mi WSW 17.3 mph 25.3 mph N/A   Overcast
1:54 PM 53.1 °F - 46.9 °F 80% 29.89 in 10.0 mi SW 10.4 mph - 0.01 in   Overcast
2:54 PM 55.0 °F - 48.0 °F 77% 29.88 in 10.0 mi SW 10.4 mph - 0.00 in   Overcast
3:54 PM 54.0 °F - 48.0 °F 80% 29.88 in 10.0 mi WNW 9.2 mph 26.5 mph 0.00 in Rain Light Rain
4:54 PM 55.0 °F - 46.9 °F 74% 29.88 in 10.0 mi WSW 13.8 mph 21.9 mph 0.00 in   Mostly Cloudy
5:54 PM 55.0 °F - 46.0 °F 72% 29.91 in 10.0 mi West 10.4 mph - N/A   Mostly Cloudy
6:09 PM 53.6 °F - 42.8 °F 67% 29.91 in 10.0 mi WNW 11.5 mph 21.9 mph 0.00 in Rain Light Rain
6:22 PM 50.0 °F - 41.0 °F 71% 29.91 in 10.0 mi West 12.7 mph 21.9 mph 0.06 in Rain , Thunderstorm Heavy Thunderstorms with Small Hail
6:45 PM 50.0 °F - 44.6 °F 82% 29.92 in 10.0 mi West 6.9 mph - 0.09 in   Mostly Cloudy
6:54 PM 50.0 °F - 44.1 °F 80% 29.94 in 10.0 mi West 9.2 mph - 0.09 in   Mostly Cloudy
7:54 PM 46.9 °F - 41.0 °F 80% 29.95 in 10.0 mi WSW 5.8 mph - N/A   Partly Cloudy
8:54 PM 44.1 °F 40.1 °F 41.0 °F 89% 29.96 in 10.0 mi SW 6.9 mph - N/A   Mostly Cloudy
9:54 PM 46.9 °F - 43.0 °F 86% 29.99 in 10.0 mi SW 5.8 mph - N/A   Mostly Cloudy
10:54 PM 45.0 °F 41.8 °F 42.1 °F 90% 29.99 in 10.0 mi SSW 5.8 mph - N/A   Scattered Clouds
11:54 PM 44.1 °F 40.1 °F 41.0 °F 89% 29.99 in 10.0 mi WSW 6.9 mph - N/A   Partly Cloudy